Location: D�derode
(51.8092°N, 10.1065°E)
Time: 01:43:24
(UTC+00:00)

Cosmos 1812 - Pass Details

Date: 20 April 2021
Orbit: 516 x 519 km, 82.5° (Epoch: 10 May)

Event Time Altitude Azimuth Distance (km) Brightness Sun altitude
Exits shadow 22:41:38 22° 58° (ENE) 1,182 4.7 -25.8°
Drops below altitude 10° 22:43:37 10° 32° (NNE) 1,765 6.0 -25.9°
Sets 22:45:59 0° 20° (NNE) 2,659 7.3 -26.0°
